Time,TemperatureF,DewpointF,PressureIn,WindDirection,WindDirectionDegrees,WindSpeedMPH,WindSpeedGustMPH,Humidity,HourlyPrecipIn,Conditions,Clouds,dailyrainin,SoftwareType,DateUTC
2013-02-17 00:00:00,33.4,13.3,30.06,SSW,203,4.6,4.6,43,0.00,OVC,,0.02,WeatherDisplay:10.37,2013-02-17 06:00:00,
2013-02-17 00:05:00,33.1,11.9,30.06,North,349,3.5,3.5,41,0.00,RA,,0.00,WeatherDisplay:10.37,2013-02-17 06:05:00,
2013-02-17 00:10:00,32.9,11.7,30.06,South,169,5.8,0.0,41,0.00,RA,,0.00,WeatherDisplay:10.37,2013-02-17 06:10:00,
2013-02-17 00:15:00,32.7,11.6,30.06,WSW,238,3.5,3.5,41,0.00,OVC,,0.00,WeatherDisplay:10.37,2013-02-17 06:15:00,
2013-02-17 00:20:00,32.4,11.2,30.06,West,260,2.3,0.0,41,0.00,OVC,,0.00,WeatherDisplay:10.37,2013-02-17 06:20:00,
2013-02-17 00:25:00,32.2,11.1,30.06,SSE,157,2.7,0.0,41,0.00,OVC,,0.00,WeatherDisplay:10.37,2013-02-17 06:25:00,
2013-02-17 00:30:00,32.0,10.9,30.06,SW,224,3.5,3.5,41,0.00,OVC,,0.00,WeatherDisplay:10.37,2013-02-17 06:30:00,
2013-02-17 00:35:00,31.8,10.8,30.03,South,189,3.5,0.0,41,0.00,OVC,,0.00,WeatherDisplay:10.37,2013-02-17 06:35:00,
2013-02-17 00:40:00,31.5,10.4,30.03,WSW,238,0.0,0.0,41,0.00,OVC,,0.00,WeatherDisplay:10.37,2013-02-17 06:40:00,
2013-02-17 00:45:00,31.1,10.1,30.03,SW,219,0.0,0.0,41,0.00,OVC,,0.00,WeatherDisplay:10.37,2013-02-17 06:45:00,
2013-02-17 00:50:00,31.1,10.1,30.03,SSW,193,3.5,3.5,41,0.00,OVC,,0.00,WeatherDisplay:10.37,2013-02-17 06:50:00,
2013-02-17 00:55:00,30.9,9.9,30.03,SSE,159,0.0,0.0,41,0.00,OVC,,0.00,WeatherDisplay:10.37,2013-02-17 06:55:00,
2013-02-17 01:00:00,30.7,9.8,30.03,South,169,2.3,0.0,41,0.00,OVC,,0.00,WeatherDisplay:10.37,2013-02-17 07:00:00,
2013-02-17 01:05:00,30.6,12.7,30.03,SW,220,3.5,0.0,47,0.00,CLR,,0.00,WeatherDisplay:10.37,2013-02-17 07:05:00,
2013-02-17 01:10:00,30.2,12.4,30.03,SSW,206,0.0,0.0,47,0.00,CLR,,0.00,WeatherDisplay:10.37,2013-02-17 07:10:00,
2013-02-17 01:15:00,30.2,12.4,30.03,South,169,0.0,0.0,47,0.00,CLR,,0.00,WeatherDisplay:10.37,2013-02-17 07:15:00,
2013-02-17 01:20:00,30.0,12.2,30.03,South,169,0.0,0.0,47,0.00,CLR,,0.00,WeatherDisplay:10.37,2013-02-17 07:20:00,
2013-02-17 01:25:00,29.8,12.0,30.03,South,175,3.1,0.0,47,0.00,CLR,,0.00,WeatherDisplay:10.37,2013-02-17 07:25:00,
2013-02-17 01:30:00,29.8,12.0,30.03,South,183,0.0,0.0,47,0.00,CLR,,0.00,WeatherDisplay:10.37,2013-02-17 07:30:00,
2013-02-17 01:35:00,29.7,11.9,30.03,SE,140,0.0,0.0,47,0.00,CLR,,0.00,WeatherDisplay:10.37,2013-02-17 07:35:00,
2013-02-17 01:40:00,29.7,11.9,30.03,SW,219,2.3,0.0,47,0.00,CLR,,0.00,WeatherDisplay:10.37,2013-02-17 07:40:00,
2013-02-17 01:45:00,29.7,11.9,30.03,South,182,2.3,2.3,47,0.00,CLR,,0.00,WeatherDisplay:10.37,2013-02-17 07:45:00,
2013-02-17 01:50:00,29.5,11.7,30.03,South,185,3.5,0.0,47,0.00,CLR,,0.00,WeatherDisplay:10.37,2013-02-17 07:50:00,
2013-02-17 01:55:00,29.5,11.7,30.03,SW,230,2.3,0.0,47,0.00,CLR,,0.00,WeatherDisplay:10.37,2013-02-17 07:55:00,
2013-02-17 02:00:00,29.3,11.5,30.03,SW,223,0.0,0.0,47,0.00,CLR,,0.00,WeatherDisplay:10.37,2013-02-17 08:00:00,
2013-02-17 02:05:00,29.1,13.2,30.03,South,171,3.1,3.1,51,0.00,CLR,,0.00,WeatherDisplay:10.37,2013-02-17 08:05:00,
2013-02-17 02:10:00,28.9,13.1,30.03,South,171,0.0,0.0,51,0.00,CLR,,0.00,WeatherDisplay:10.37,2013-02-17 08:10:00,
2013-02-17 02:15:00,28.8,12.9,30.03,South,171,0.0,0.0,51,0.00,CLR,,0.00,WeatherDisplay:10.37,2013-02-17 08:15:00,
2013-02-17 02:20:00,28.8,12.9,30.03,South,174,2.3,0.0,51,0.00,CLR,,0.00,WeatherDisplay:10.37,2013-02-17 08:20:00,
2013-02-17 02:25:00,28.6,12.7,30.03,SSE,164,3.5,0.0,51,0.00,CLR,,0.00,WeatherDisplay:10.37,2013-02-17 08:25:00,
2013-02-17 02:30:00,28.6,12.7,30.03,SSW,207,0.0,0.0,51,0.00,CLR,,0.00,WeatherDisplay:10.37,2013-02-17 08:30:00,
2013-02-17 02:35:00,28.6,12.7,30.03,SW,223,3.5,0.0,51,0.00,CLR,,0.00,WeatherDisplay:10.37,2013-02-17 08:35:00,
2013-02-17 02:40:00,28.6,12.7,30.03,SW,224,0.0,0.0,51,0.00,CLR,,0.00,WeatherDisplay:10.37,2013-02-17 08:40:00,
2013-02-17 02:45:00,28.6,12.7,30.03,South,184,2.3,0.0,51,0.00,CLR,,0.00,WeatherDisplay:10.37,2013-02-17 08:45:00,
2013-02-17 02:50:00,28.4,12.6,30.03,South,184,0.0,0.0,51,0.00,CLR,,0.00,WeatherDisplay:10.37,2013-02-17 08:50:00,
2013-02-17 02:55:00,28.4,12.6,30.03,South,184,0.0,0.0,51,0.00,CLR,,0.00,WeatherDisplay:10.37,2013-02-17 08:55:00,
2013-02-17 03:00:00,28.4,12.6,30.03,ESE,119,2.3,0.0,51,0.00,CLR,,0.00,WeatherDisplay:10.37,2013-02-17 09:00:00,
2013-02-17 03:05:00,28.2,16.1,30.03,ESE,119,0.0,0.0,60,0.00,CLR,,0.00,WeatherDisplay:10.37,2013-02-17 09:05:00,
2013-02-17 03:10:00,28.0,15.9,30.03,ESE,119,0.0,0.0,60,0.00,CLR,,0.00,WeatherDisplay:10.37,2013-02-17 09:10:00,
2013-02-17 03:15:00,28.0,15.9,30.03,ESE,119,0.0,0.0,60,0.00,CLR,,0.00,WeatherDisplay:10.37,2013-02-17 09:15:00,
2013-02-17 03:20:00,27.9,15.8,30.03,ESE,119,0.0,0.0,60,0.00,CLR,,0.00,WeatherDisplay:10.37,2013-02-17 09:20:00,
2013-02-17 03:25:00,27.9,15.8,30.03,ESE,119,0.0,0.0,60,0.00,CLR,,0.00,WeatherDisplay:10.37,2013-02-17 09:25:00,
2013-02-17 03:30:00,27.7,15.6,30.03,ESE,119,0.0,0.0,60,0.00,CLR,,0.00,WeatherDisplay:10.37,2013-02-17 09:30:00,
2013-02-17 03:35:00,27.5,15.4,30.03,ESE,119,0.0,0.0,60,0.00,CLR,,0.00,WeatherDisplay:10.37,2013-02-17 09:35:00,
2013-02-17 03:40:00,27.3,15.2,30.03,ESE,119,2.3,0.0,60,0.00,CLR,,0.00,WeatherDisplay:10.37,2013-02-17 09:40:00,
2013-02-17 03:45:00,27.3,15.2,30.03,ESE,119,0.0,0.0,60,0.00,CLR,,0.00,WeatherDisplay:10.37,2013-02-17 09:45:00,
2013-02-17 03:50:00,27.3,15.2,30.00,ESE,119,0.0,0.0,60,0.00,CLR,,0.00,WeatherDisplay:10.37,2013-02-17 09:50:00,
2013-02-17 03:55:00,27.3,15.2,30.00,ESE,119,0.0,0.0,60,0.00,CLR,,0.00,WeatherDisplay:10.37,2013-02-17 09:55:00,
2013-02-17 04:00:00,27.1,15.1,30.00,ESE,119,0.0,0.0,60,0.00,CLR,,0.00,WeatherDisplay:10.37,2013-02-17 10:00:00,
2013-02-17 04:06:00,27.1,13.9,30.00,ESE,119,0.0,0.0,57,0.00,CLR,,0.00,WeatherDisplay:10.37,2013-02-17 10:06:00,
2013-02-17 04:11:00,27.1,13.9,30.00,ESE,119,0.0,0.0,57,0.00,CLR,,0.00,WeatherDisplay:10.37,2013-02-17 10:11:00,
2013-02-17 04:16:00,27.1,13.9,30.00,ESE,119,0.0,0.0,57,0.00,CLR,,0.00,WeatherDisplay:10.37,2013-02-17 10:16:00,
2013-02-17 04:21:00,27.0,13.7,30.00,SW,217,0.0,0.0,57,0.00,CLR,,0.00,WeatherDisplay:10.37,2013-02-17 10:21:00,
2013-02-17 04:26:00,27.0,13.7,30.00,SW,217,0.0,0.0,57,0.00,CLR,,0.00,WeatherDisplay:10.37,2013-02-17 10:26:00,
2013-02-17 04:31:00,27.0,13.7,30.00,SW,217,0.0,0.0,57,0.00,CLR,,0.00,WeatherDisplay:10.37,2013-02-17 10:31:00,
2013-02-17 04:36:00,26.8,13.6,30.00,SW,216,0.0,0.0,57,0.00,CLR,,0.00,WeatherDisplay:10.37,2013-02-17 10:36:00,
2013-02-17 04:41:00,26.8,13.6,30.00,SE,140,3.5,0.0,57,0.00,CLR,,0.00,WeatherDisplay:10.37,2013-02-17 10:41:00,
2013-02-17 04:46:00,26.6,13.4,30.00,SE,140,0.0,0.0,57,0.00,CLR,,0.00,WeatherDisplay:10.37,2013-02-17 10:46:00,
2013-02-17 04:51:00,26.6,13.4,30.00,SE,140,0.0,0.0,57,0.00,CLR,,0.00,WeatherDisplay:10.37,2013-02-17 10:51:00,
2013-02-17 04:56:00,26.4,13.2,30.00,SE,140,0.0,0.0,57,0.00,CLR,,0.00,WeatherDisplay:10.37,2013-02-17 10:56:00,
2013-02-17 05:01:00,26.4,16.2,30.00,SE,138,0.0,0.0,65,0.00,CLR,,0.00,WeatherDisplay:10.37,2013-02-17 11:01:00,
2013-02-17 05:06:00,26.4,16.2,30.00,SE,140,0.0,0.0,65,0.00,CLR,,0.00,WeatherDisplay:10.37,2013-02-17 11:06:00,
2013-02-17 05:11:00,26.2,16.1,30.00,SE,140,0.0,0.0,65,0.00,CLR,,0.00,WeatherDisplay:10.37,2013-02-17 11:11:00,
2013-02-17 05:16:00,26.2,16.1,30.00,SE,140,0.0,0.0,65,0.00,CLR,,0.00,WeatherDisplay:10.37,2013-02-17 11:16:00,
2013-02-17 05:21:00,26.2,16.1,30.00,SE,140,0.0,0.0,65,0.00,CLR,,0.00,WeatherDisplay:10.37,2013-02-17 11:21:00,
2013-02-17 05:35:00,26.1,15.9,30.00,SE,140,0.0,0.0,65,0.00,CLR,,0.00,WeatherDisplay:10.37,2013-02-17 11:35:00,
2013-02-17 05:39:00,25.9,15.7,30.00,SE,140,0.0,0.0,65,0.00,CLR,,0.00,WeatherDisplay:10.37,2013-02-17 11:39:00,
2013-02-17 05:45:00,25.7,15.6,30.00,SE,140,0.0,0.0,65,0.00,CLR,,0.00,WeatherDisplay:10.37,2013-02-17 11:45:00,
2013-02-17 05:50:00,25.7,15.6,30.00,SE,140,0.0,0.0,65,0.00,CLR,,0.00,WeatherDisplay:10.37,2013-02-17 11:50:00,
2013-02-17 05:56:00,25.7,15.6,30.00,SE,140,0.0,0.0,65,0.00,CLR,,0.00,WeatherDisplay:10.37,2013-02-17 11:56:00,
2013-02-17 06:01:00,25.5,18.4,30.00,SE,140,0.0,0.0,74,0.00,CLR,,0.00,WeatherDisplay:10.37,2013-02-17 12:01:00,
2013-02-17 06:07:00,25.3,18.2,30.00,SE,140,0.0,0.0,74,0.00,CLR,,0.00,WeatherDisplay:10.37,2013-02-17 12:07:00,
2013-02-17 06:12:00,25.3,18.2,30.00,SE,140,0.0,0.0,74,0.00,CLR,,0.00,WeatherDisplay:10.37,2013-02-17 12:12:00,
2013-02-17 06:18:00,25.2,18.0,30.00,SE,140,0.0,0.0,74,0.00,CLR,,0.00,WeatherDisplay:10.37,2013-02-17 12:18:00,
2013-02-17 06:28:00,24.8,17.7,30.00,SE,140,0.0,0.0,74,0.00,CLR,,0.00,WeatherDisplay:10.37,2013-02-17 12:28:00,
2013-02-17 06:33:00,24.8,17.7,30.00,SE,140,0.0,0.0,74,0.00,CLR,,0.00,WeatherDisplay:10.37,2013-02-17 12:33:00,
2013-02-17 06:38:00,24.6,17.5,30.00,SE,140,0.0,0.0,74,0.00,CLR,,0.00,WeatherDisplay:10.37,2013-02-17 12:38:00,
2013-02-17 06:44:00,24.6,17.5,30.00,SE,140,0.0,0.0,74,0.00,CLR,,0.00,WeatherDisplay:10.37,2013-02-17 12:44:00,
2013-02-17 06:49:00,24.6,17.5,30.00,SE,140,0.0,0.0,74,0.00,CLR,,0.00,WeatherDisplay:10.37,2013-02-17 12:49:00,
2013-02-17 06:54:00,24.4,17.3,30.00,SE,140,0.0,0.0,74,0.00,CLR,,0.00,WeatherDisplay:10.37,2013-02-17 12:54:00,
2013-02-17 06:59:00,24.4,17.3,30.00,SE,140,0.0,0.0,74,0.00,CLR,,0.00,WeatherDisplay:10.37,2013-02-17 12:59:00,
2013-02-17 07:04:00,24.4,16.1,30.00,SE,140,0.0,0.0,70,0.00,CLR,,0.00,WeatherDisplay:10.37,2013-02-17 13:04:00,
2013-02-17 07:09:00,24.4,16.1,30.00,SE,140,0.0,0.0,70,0.00,CLR,,0.00,WeatherDisplay:10.37,2013-02-17 13:09:00,
2013-02-17 07:14:00,24.3,15.9,30.00,SE,140,0.0,0.0,70,0.00,CLR,,0.00,WeatherDisplay:10.37,2013-02-17 13:14:00,
2013-02-17 07:19:00,24.3,15.9,30.00,SE,140,0.0,0.0,70,0.00,CLR,,0.00,WeatherDisplay:10.37,2013-02-17 13:19:00,
2013-02-17 07:24:00,24.1,15.7,30.00,SE,140,0.0,0.0,70,0.00,CLR,,0.00,WeatherDisplay:10.37,2013-02-17 13:24:00,
2013-02-17 07:29:00,24.1,15.7,30.00,SE,140,0.0,0.0,70,0.00,CLR,,0.00,WeatherDisplay:10.37,2013-02-17 13:29:00,
2013-02-17 07:34:00,24.1,15.7,30.00,SE,140,0.0,0.0,70,0.00,CLR,,0.00,WeatherDisplay:10.37,2013-02-17 13:34:00,
2013-02-17 07:39:00,24.1,15.7,30.00,SE,140,0.0,0.0,70,0.00,CLR,,0.00,WeatherDisplay:10.37,2013-02-17 13:39:00,
2013-02-17 07:44:00,24.3,15.9,30.00,SE,140,0.0,0.0,70,0.00,CLR,,0.00,WeatherDisplay:10.37,2013-02-17 13:44:00,
2013-02-17 07:49:00,24.4,16.1,29.97,SE,140,0.0,0.0,70,0.00,CLR,,0.00,WeatherDisplay:10.37,2013-02-17 13:49:00,
2013-02-17 07:54:00,24.8,16.4,29.97,SE,140,0.0,0.0,70,0.00,CLR,,0.00,WeatherDisplay:10.37,2013-02-17 13:54:00,
2013-02-17 07:59:00,25.2,16.7,29.97,SSE,154,3.5,3.5,70,0.00,CLR,,0.00,WeatherDisplay:10.37,2013-02-17 13:59:00,
2013-02-17 08:04:00,25.7,15.9,29.97,SE,131,3.5,0.0,66,0.00,CLR,,0.00,WeatherDisplay:10.37,2013-02-17 14:04:00,
2013-02-17 08:09:00,26.2,16.4,29.97,SSE,153,2.3,2.3,66,0.00,CLR,,0.00,WeatherDisplay:10.37,2013-02-17 14:09:00,
2013-02-17 08:14:00,27.0,17.1,29.97,SSE,160,2.3,2.3,66,0.00,CLR,,0.00,WeatherDisplay:10.37,2013-02-17 14:14:00,
2013-02-17 08:19:00,27.3,17.5,29.97,SSE,163,0.0,0.0,66,0.00,CLR,,0.00,WeatherDisplay:10.37,2013-02-17 14:19:00,
2013-02-17 08:24:00,28.0,18.1,29.97,SSE,159,0.0,0.0,66,0.00,CLR,,0.00,WeatherDisplay:10.37,2013-02-17 14:24:00,
2013-02-17 08:29:00,28.9,19.0,29.97,SE,130,2.3,2.7,66,0.00,CLR,,0.00,WeatherDisplay:10.37,2013-02-17 14:29:00,
2013-02-17 08:34:00,29.8,19.9,29.97,South,172,2.3,0.0,66,0.00,CLR,,0.00,WeatherDisplay:10.37,2013-02-17 14:34:00,
2013-02-17 08:39:00,30.7,20.7,29.97,SSE,147,3.5,3.5,66,0.00,CLR,,0.00,WeatherDisplay:10.37,2013-02-17 14:39:00,
2013-02-17 08:44:00,31.5,21.4,29.97,SSE,149,3.5,3.5,66,0.00,CLR,,0.00,WeatherDisplay:10.37,2013-02-17 14:44:00,
2013-02-17 08:49:00,32.4,22.3,29.97,SE,137,3.5,3.5,66,0.00,CLR,,0.00,WeatherDisplay:10.37,2013-02-17 14:49:00,
2013-02-17 08:54:00,33.1,22.9,29.97,South,172,4.6,4.6,66,0.00,CLR,,0.00,WeatherDisplay:10.37,2013-02-17 14:54:00,
2013-02-17 08:59:00,33.4,23.3,29.97,SSW,194,3.5,3.5,66,0.00,CLR,,0.00,WeatherDisplay:10.37,2013-02-17 14:59:00,
2013-02-17 09:04:00,34.2,24.0,29.97,SE,142,3.5,4.5,66,0.00,CLR,,0.00,WeatherDisplay:10.37,2013-02-17 15:04:00,
2013-02-17 09:09:00,34.7,24.5,29.97,SSE,149,9.2,9.2,66,0.00,CLR,,0.00,WeatherDisplay:10.37,2013-02-17 15:09:00,
2013-02-17 09:14:00,35.2,20.7,29.97,SSE,153,5.8,5.8,55,0.00,CLR,,0.00,WeatherDisplay:10.37,2013-02-17 15:14:00,
2013-02-17 09:19:00,36.0,21.3,29.97,SSE,157,3.5,3.5,55,0.00,CLR,,0.00,WeatherDisplay:10.37,2013-02-17 15:19:00,
2013-02-17 09:24:00,36.5,21.8,29.97,SSW,209,4.6,4.6,55,0.00,CLR,,0.00,WeatherDisplay:10.37,2013-02-17 15:24:00,
2013-02-17 09:29:00,37.4,22.7,29.97,ESE,118,4.6,4.6,55,0.00,CLR,,0.00,WeatherDisplay:10.37,2013-02-17 15:29:00,
2013-02-17 09:34:00,38.5,23.7,29.97,ESE,114,5.8,5.8,55,0.00,CLR,,0.00,WeatherDisplay:10.37,2013-02-17 15:34:00,
2013-02-17 09:39:00,39.0,24.2,29.97,SSE,155,4.9,4.9,55,0.00,CLR,,0.00,WeatherDisplay:10.37,2013-02-17 15:39:00,
2013-02-17 09:44:00,39.4,24.5,29.97,SW,216,5.8,5.8,55,0.00,CLR,,0.00,WeatherDisplay:10.37,2013-02-17 15:44:00,
2013-02-17 09:49:00,39.9,25.0,29.97,ESE,117,3.5,3.5,55,0.00,CLR,,0.00,WeatherDisplay:10.37,2013-02-17 15:49:00,
2013-02-17 09:54:00,40.5,25.5,29.97,SE,141,3.5,3.5,55,0.00,CLR,,0.00,WeatherDisplay:10.37,2013-02-17 15:54:00,
2013-02-17 09:59:00,40.8,25.9,29.97,SSE,151,5.8,5.8,55,0.00,CLR,,0.00,WeatherDisplay:10.37,2013-02-17 15:59:00,
2013-02-17 10:04:00,41.4,26.4,29.94,ESE,117,5.8,5.8,55,0.00,CLR,,0.00,WeatherDisplay:10.37,2013-02-17 16:04:00,
2013-02-17 10:09:00,41.7,26.7,29.94,SW,220,3.5,3.5,55,0.00,CLR,,0.00,WeatherDisplay:10.37,2013-02-17 16:09:00,
2013-02-17 10:14:00,42.1,25.7,29.94,SSE,162,3.6,3.6,52,0.00,CLR,,0.00,WeatherDisplay:10.37,2013-02-17 16:14:00,
2013-02-17 10:19:00,42.4,26.0,29.94,ESE,114,5.8,5.8,52,0.00,CLR,,0.00,WeatherDisplay:10.37,2013-02-17 16:19:00,
2013-02-17 10:24:00,42.6,26.2,29.94,SE,144,3.5,3.5,52,0.00,CLR,,0.00,WeatherDisplay:10.37,2013-02-17 16:24:00,
2013-02-17 10:29:00,43.0,26.5,29.94,ESE,104,5.8,5.8,52,0.00,CLR,,0.00,WeatherDisplay:10.37,2013-02-17 16:29:00,
2013-02-17 10:34:00,43.0,26.5,29.94,SSE,163,5.8,5.8,52,0.00,CLR,,0.00,WeatherDisplay:10.37,2013-02-17 16:34:00,
2013-02-17 10:39:00,43.3,26.9,29.94,SSE,155,3.5,3.6,52,0.00,CLR,,0.00,WeatherDisplay:10.37,2013-02-17 16:39:00,
2013-02-17 10:44:00,43.5,27.0,29.94,SSW,210,3.5,3.5,52,0.00,CLR,,0.00,WeatherDisplay:10.37,2013-02-17 16:44:00,
2013-02-17 10:49:00,44.1,27.5,29.94,South,191,3.5,3.5,52,0.00,CLR,,0.00,WeatherDisplay:10.37,2013-02-17 16:49:00,
2013-02-17 10:54:00,44.6,28.0,29.94,SE,131,3.5,3.5,52,0.00,CLR,,0.00,WeatherDisplay:10.37,2013-02-17 16:54:00,
2013-02-17 10:59:00,45.1,28.5,29.94,SSE,158,4.6,4.6,52,0.00,CLR,,0.00,WeatherDisplay:10.37,2013-02-17 16:59:00,
2013-02-17 11:04:00,45.5,28.9,29.94,SE,141,5.8,5.8,52,0.00,CLR,,0.00,WeatherDisplay:10.37,2013-02-17 17:04:00,
2013-02-17 11:09:00,46.0,29.4,29.94,SE,126,5.8,5.8,52,0.00,CLR,,0.00,WeatherDisplay:10.37,2013-02-17 17:09:00,
2013-02-17 11:14:00,46.4,26.2,29.94,South,185,4.6,4.6,45,0.00,CLR,,0.00,WeatherDisplay:10.37,2013-02-17 17:14:00,
2013-02-17 11:19:00,46.9,26.7,29.94,South,170,5.8,5.8,45,0.00,CLR,,0.00,WeatherDisplay:10.37,2013-02-17 17:19:00,
2013-02-17 11:24:00,47.5,27.2,29.94,South,172,5.8,5.8,45,0.00,CLR,,0.00,WeatherDisplay:10.37,2013-02-17 17:24:00,
2013-02-17 11:30:00,48.0,27.7,29.94,SSW,200,5.8,5.8,45,0.00,CLR,,0.00,WeatherDisplay:10.37,2013-02-17 17:30:00,
2013-02-17 11:35:00,48.6,28.2,29.91,South,186,5.8,5.8,45,0.00,CLR,,0.00,WeatherDisplay:10.37,2013-02-17 17:35:00,
2013-02-17 11:40:00,49.3,28.8,29.91,SW,222,3.5,0.0,45,0.00,CLR,,0.00,WeatherDisplay:10.37,2013-02-17 17:40:00,
2013-02-17 11:45:00,50.0,29.5,29.91,SSE,164,5.8,5.8,45,0.00,CLR,,0.00,WeatherDisplay:10.37,2013-02-17 17:45:00,
2013-02-17 11:50:00,50.5,30.0,29.91,South,191,4.6,0.0,45,0.00,CLR,,0.00,WeatherDisplay:10.37,2013-02-17 17:50:00,
2013-02-17 11:55:00,51.3,30.6,29.91,SSE,147,5.8,5.8,45,0.00,CLR,,0.00,WeatherDisplay:10.37,2013-02-17 17:55:00,
2013-02-17 12:00:00,51.8,31.1,29.91,SE,143,5.8,5.8,45,0.00,CLR,,0.00,WeatherDisplay:10.37,2013-02-17 18:00:00,
2013-02-17 12:05:00,52.2,31.4,29.91,SSE,168,3.5,3.6,45,0.00,CLR,,0.00,WeatherDisplay:10.37,2013-02-17 18:05:00,
2013-02-17 12:10:00,52.3,31.6,29.91,ESE,123,3.5,4.0,45,0.00,CLR,,0.00,WeatherDisplay:10.37,2013-02-17 18:10:00,
2013-02-17 12:15:00,52.7,28.4,29.91,SSE,161,5.8,5.8,39,0.00,CLR,,0.00,WeatherDisplay:10.37,2013-02-17 18:15:00,
2013-02-17 12:20:00,53.0,28.7,29.88,SE,139,5.0,8.0,39,0.00,CLR,,0.00,WeatherDisplay:10.37,2013-02-17 18:20:00,
2013-02-17 12:25:00,53.2,28.8,29.88,SE,145,3.0,7.0,39,0.00,CLR,,0.00,WeatherDisplay:10.37,2013-02-17 18:25:00,
2013-02-17 12:30:00,53.6,29.2,29.88,South,182,5.8,5.8,39,0.00,CLR,,0.00,WeatherDisplay:10.37,2013-02-17 18:30:00,
2013-02-17 12:35:00,53.9,29.5,29.88,SSE,162,5.0,6.0,39,0.00,CLR,,0.00,WeatherDisplay:10.37,2013-02-17 18:35:00,
2013-02-17 12:40:00,54.3,29.9,29.88,SSE,147,8.0,8.0,39,0.00,CLR,,0.00,WeatherDisplay:10.37,2013-02-17 18:40:00,
2013-02-17 12:45:00,54.7,30.2,29.88,SE,125,5.8,5.8,39,0.00,CLR,,0.00,WeatherDisplay:10.37,2013-02-17 18:45:00,
2013-02-17 12:50:00,54.9,30.3,29.85,SSW,192,3.5,3.5,39,0.00,CLR,,0.00,WeatherDisplay:10.37,2013-02-17 18:50:00,
2013-02-17 12:55:00,55.2,30.7,29.85,South,175,3.0,9.0,39,0.00,CLR,,0.00,WeatherDisplay:10.37,2013-02-17 18:55:00,
2013-02-17 13:00:00,55.2,30.7,29.85,SE,130,8.1,8.1,39,0.00,CLR,,0.00,WeatherDisplay:10.37,2013-02-17 19:00:00,
2013-02-17 13:05:00,55.2,30.7,29.85,SE,138,5.0,8.0,39,0.00,CLR,,0.00,WeatherDisplay:10.37,2013-02-17 19:05:00,
2013-02-17 13:10:00,55.8,31.2,29.85,South,178,7.6,7.6,39,0.00,CLR,,0.00,WeatherDisplay:10.37,2013-02-17 19:10:00,
2013-02-17 13:15:00,56.3,29.0,29.85,SSW,204,3.5,3.5,35,0.00,CLR,,0.00,WeatherDisplay:10.37,2013-02-17 19:15:00,
2013-02-17 13:20:00,56.8,29.4,29.83,SSE,167,3.5,4.5,35,0.00,CLR,,0.00,WeatherDisplay:10.37,2013-02-17 19:20:00,
2013-02-17 13:25:00,57.2,29.7,29.83,SSE,157,5.0,8.0,35,0.00,CLR,,0.00,WeatherDisplay:10.37,2013-02-17 19:25:00,
2013-02-17 13:30:00,57.4,29.9,29.83,South,177,3.5,3.5,35,0.00,CLR,,0.00,WeatherDisplay:10.37,2013-02-17 19:30:00,
2013-02-17 13:35:00,57.6,30.1,29.83,SSE,158,5.8,5.8,35,0.00,CLR,,0.00,WeatherDisplay:10.37,2013-02-17 19:35:00,
2013-02-17 13:40:00,57.7,30.2,29.83,SSE,150,5.8,5.8,35,0.00,CLR,,0.00,WeatherDisplay:10.37,2013-02-17 19:40:00,
2013-02-17 13:45:00,57.9,30.4,29.83,South,170,5.8,5.8,35,0.00,CLR,,0.00,WeatherDisplay:10.37,2013-02-17 19:45:00,
2013-02-17 13:50:00,58.1,30.6,29.83,South,171,5.8,5.8,35,0.00,CLR,,0.00,WeatherDisplay:10.37,2013-02-17 19:50:00,
2013-02-17 13:55:00,58.3,30.7,29.83,South,171,3.5,3.5,35,0.00,CLR,,0.00,WeatherDisplay:10.37,2013-02-17 19:55:00,
2013-02-17 14:00:00,58.6,31.0,29.83,SSE,158,6.0,8.0,35,0.00,CLR,,0.00,WeatherDisplay:10.37,2013-02-17 20:00:00,
2013-02-17 14:05:00,59.0,31.4,29.83,SSW,208,5.8,5.8,35,0.00,CLR,,0.00,WeatherDisplay:10.37,2013-02-17 20:05:00,
2013-02-17 14:10:00,59.2,31.5,29.83,ESE,121,3.5,4.0,35,0.00,CLR,,0.00,WeatherDisplay:10.37,2013-02-17 20:10:00,
2013-02-17 14:15:00,59.5,28.8,29.83,SSE,158,5.8,5.8,31,0.00,CLR,,0.00,WeatherDisplay:10.37,2013-02-17 20:15:00,
2013-02-17 14:20:00,59.7,29.0,29.80,SE,126,5.8,6.3,31,0.00,CLR,,0.00,WeatherDisplay:10.37,2013-02-17 20:20:00,
2013-02-17 14:25:00,59.7,29.0,29.80,SSE,147,5.8,5.8,31,0.00,CLR,,0.00,WeatherDisplay:10.37,2013-02-17 20:25:00,
2013-02-17 14:30:00,59.7,29.0,29.80,SSW,199,5.8,5.8,31,0.00,CLR,,0.00,WeatherDisplay:10.37,2013-02-17 20:30:00,
2013-02-17 14:35:00,60.1,29.3,29.80,SSE,159,5.8,5.8,31,0.00,CLR,,0.00,WeatherDisplay:10.37,2013-02-17 20:35:00,
2013-02-17 14:40:00,60.4,29.6,29.80,ESE,115,5.8,5.8,31,0.00,CLR,,0.00,WeatherDisplay:10.37,2013-02-17 20:40:00,
2013-02-17 14:45:00,60.6,29.8,29.80,SW,225,8.1,8.1,31,0.00,CLR,,0.00,WeatherDisplay:10.37,2013-02-17 20:45:00,
2013-02-17 14:50:00,61.0,30.1,29.80,South,180,4.5,4.5,31,0.00,CLR,,0.00,WeatherDisplay:10.37,2013-02-17 20:50:00,
2013-02-17 14:55:00,61.2,30.3,29.80,South,179,8.1,8.1,31,0.00,CLR,,0.00,WeatherDisplay:10.37,2013-02-17 20:55:00,
2013-02-17 15:00:00,61.3,30.4,29.80,SW,220,5.8,5.8,31,0.00,CLR,,0.00,WeatherDisplay:10.37,2013-02-17 21:00:00,
2013-02-17 15:05:00,61.3,30.4,29.80,SSE,156,8.1,8.1,31,0.00,CLR,,0.00,WeatherDisplay:10.37,2013-02-17 21:05:00,
2013-02-17 15:10:00,61.2,30.3,29.80,SE,135,5.8,5.8,31,0.00,CLR,,0.00,WeatherDisplay:10.37,2013-02-17 21:10:00,
2013-02-17 15:15:00,61.0,30.1,29.80,SSE,163,6.3,6.3,31,0.00,CLR,,0.00,WeatherDisplay:10.37,2013-02-17 21:15:00,
2013-02-17 15:20:00,61.0,30.1,29.77,SSE,160,5.8,5.8,31,0.00,CLR,,0.00,WeatherDisplay:10.37,2013-02-17 21:20:00,
2013-02-17 15:25:00,61.0,30.1,29.77,South,171,5.8,5.8,31,0.00,CLR,,0.00,WeatherDisplay:10.37,2013-02-17 21:25:00,
2013-02-17 15:30:00,61.0,30.1,29.77,SSE,149,5.8,5.8,31,0.00,CLR,,0.00,WeatherDisplay:10.37,2013-02-17 21:30:00,
2013-02-17 15:35:00,60.8,29.9,29.77,South,174,8.1,8.1,31,0.00,CLR,,0.00,WeatherDisplay:10.37,2013-02-17 21:35:00,
2013-02-17 15:40:00,60.8,29.9,29.77,South,186,12.7,12.7,31,0.00,CLR,,0.00,WeatherDisplay:10.37,2013-02-17 21:40:00,
2013-02-17 15:45:00,60.6,29.8,29.77,SSE,167,6.9,6.9,31,0.00,CLR,,0.00,WeatherDisplay:10.37,2013-02-17 21:45:00,
2013-02-17 15:50:00,60.6,29.8,29.77,South,176,8.1,8.1,31,0.00,CLR,,0.00,WeatherDisplay:10.37,2013-02-17 21:50:00,
2013-02-17 15:55:00,60.8,29.9,29.77,SSW,203,5.8,5.8,31,0.00,CLR,,0.00,WeatherDisplay:10.37,2013-02-17 21:55:00,
2013-02-17 16:00:00,61.0,30.1,29.77,South,174,4.6,4.6,31,0.00,CLR,,0.00,WeatherDisplay:10.37,2013-02-17 22:00:00,
2013-02-17 16:05:00,61.2,31.8,29.77,SE,134,6.3,6.3,33,0.00,CLR,,0.00,WeatherDisplay:10.37,2013-02-17 22:05:00,
2013-02-17 16:10:00,61.0,31.6,29.77,SSE,160,5.8,5.8,33,0.00,CLR,,0.00,WeatherDisplay:10.37,2013-02-17 22:10:00,
2013-02-17 16:15:00,60.8,31.5,29.77,South,170,8.1,8.1,33,0.00,CLR,,0.00,WeatherDisplay:10.37,2013-02-17 22:15:00,
2013-02-17 16:20:00,60.6,31.3,29.74,SE,142,5.4,5.4,33,0.00,CLR,,0.00,WeatherDisplay:10.37,2013-02-17 22:20:00,
2013-02-17 16:25:00,60.4,31.2,29.74,SSE,167,5.8,5.8,33,0.00,CLR,,0.00,WeatherDisplay:10.37,2013-02-17 22:25:00,
2013-02-17 16:30:00,60.3,31.0,29.74,ESE,121,5.8,5.8,33,0.00,CLR,,0.00,WeatherDisplay:10.37,2013-02-17 22:30:00,
2013-02-17 16:35:00,60.1,30.9,29.74,SSE,156,5.8,5.8,33,0.00,CLR,,0.00,WeatherDisplay:10.37,2013-02-17 22:35:00,
2013-02-17 16:40:00,60.1,30.9,29.74,SE,129,3.5,3.5,33,0.00,CLR,,0.00,WeatherDisplay:10.37,2013-02-17 22:40:00,
2013-02-17 16:45:00,60.1,30.9,29.74,SE,136,8.1,8.1,33,0.00,CLR,,0.00,WeatherDisplay:10.37,2013-02-17 22:45:00,
2013-02-17 16:50:00,59.9,30.7,29.74,SE,134,8.1,8.1,33,0.00,CLR,,0.00,WeatherDisplay:10.37,2013-02-17 22:50:00,
2013-02-17 16:55:00,59.5,30.4,29.74,SSE,155,5.8,5.8,33,0.00,CLR,,0.00,WeatherDisplay:10.37,2013-02-17 22:55:00,
2013-02-17 17:00:00,59.2,30.1,29.74,ESE,112,5.8,5.8,33,0.00,CLR,,0.00,WeatherDisplay:10.37,2013-02-17 23:00:00,
2013-02-17 17:05:00,58.6,30.3,29.74,SSE,150,5.8,5.8,34,0.00,CLR,,0.00,WeatherDisplay:10.37,2013-02-17 23:05:00,
2013-02-17 17:10:00,58.3,30.0,29.74,SE,134,3.5,3.5,34,0.00,CLR,,0.00,WeatherDisplay:10.37,2013-02-17 23:10:00,
2013-02-17 17:15:00,57.9,29.7,29.74,SSE,153,9.2,9.2,34,0.00,CLR,,0.00,WeatherDisplay:10.37,2013-02-17 23:15:00,
2013-02-17 17:20:00,57.4,29.2,29.74,SSE,147,4.6,4.6,34,0.00,CLR,,0.00,WeatherDisplay:10.37,2013-02-17 23:20:00,
2013-02-17 17:25:00,57.0,28.9,29.74,SE,145,2.7,2.7,34,0.00,CLR,,0.00,WeatherDisplay:10.37,2013-02-17 23:25:00,
2013-02-17 17:30:00,56.7,28.6,29.74,South,179,5.4,5.4,34,0.00,CLR,,0.00,WeatherDisplay:10.37,2013-02-17 23:30:00,
2013-02-17 17:35:00,56.3,28.3,29.74,South,173,5.8,5.8,34,0.00,CLR,,0.00,WeatherDisplay:10.37,2013-02-17 23:35:00,
2013-02-17 17:40:00,55.9,27.9,29.74,SE,131,4.6,4.6,34,0.00,CLR,,0.00,WeatherDisplay:10.37,2013-02-17 23:40:00,
2013-02-17 17:45:00,55.6,27.6,29.74,ESE,121,8.1,8.1,34,0.00,CLR,,0.00,WeatherDisplay:10.37,2013-02-17 23:45:00,
2013-02-17 17:50:00,55.4,27.5,29.74,SSE,157,4.6,4.6,34,0.00,CLR,,0.00,WeatherDisplay:10.37,2013-02-17 23:50:00,
2013-02-17 17:55:00,55.0,27.1,29.74,SSE,147,5.8,5.8,34,0.00,CLR,,0.00,WeatherDisplay:10.37,2013-02-17 23:55:00,
2013-02-17 18:00:00,54.7,26.8,29.74,SE,141,5.4,0.0,34,0.00,CLR,,0.00,WeatherDisplay:10.37,2013-02-18 00:00:00,
2013-02-17 18:06:00,54.5,30.6,29.74,SE,135,3.5,3.6,40,0.00,CLR,,0.00,WeatherDisplay:10.37,2013-02-18 00:06:00,
2013-02-17 18:11:00,54.1,30.3,29.74,SE,136,5.8,5.8,40,0.00,CLR,,0.00,WeatherDisplay:10.37,2013-02-18 00:11:00,
2013-02-17 18:16:00,54.0,30.2,29.74,SE,145,4.6,4.6,40,0.00,CLR,,0.00,WeatherDisplay:10.37,2013-02-18 00:16:00,
2013-02-17 18:21:00,53.8,30.0,29.71,SE,129,3.5,3.5,40,0.00,CLR,,0.00,WeatherDisplay:10.37,2013-02-18 00:21:00,
2013-02-17 18:26:00,53.4,29.7,29.71,ESE,120,3.5,4.5,40,0.00,CLR,,0.00,WeatherDisplay:10.37,2013-02-18 00:26:00,
2013-02-17 18:31:00,53.2,29.5,29.71,SE,144,5.8,5.8,40,0.00,CLR,,0.00,WeatherDisplay:10.37,2013-02-18 00:31:00,
2013-02-17 18:36:00,53.1,29.4,29.71,ESE,117,5.8,5.8,40,0.00,CLR,,0.00,WeatherDisplay:10.37,2013-02-18 00:36:00,
2013-02-17 18:41:00,53.1,29.4,29.71,SSW,200,3.5,3.5,40,0.00,CLR,,0.00,WeatherDisplay:10.37,2013-02-18 00:41:00,
2013-02-17 18:46:00,52.9,29.2,29.71,SE,140,3.5,3.5,40,0.00,CLR,,0.00,WeatherDisplay:10.37,2013-02-18 00:46:00,
2013-02-17 18:51:00,52.7,29.0,29.71,SE,143,5.8,5.8,40,0.00,CLR,,0.00,WeatherDisplay:10.37,2013-02-18 00:51:00,
2013-02-17 18:56:00,52.5,28.9,29.71,SE,144,5.4,5.4,40,0.00,CLR,,0.00,WeatherDisplay:10.37,2013-02-18 00:56:00,
2013-02-17 19:01:00,52.5,28.9,29.71,ESE,111,3.5,3.5,40,0.00,CLR,,0.00,WeatherDisplay:10.37,2013-02-18 01:01:00,
2013-02-17 19:06:00,52.5,33.4,29.71,SSE,156,3.6,4.0,48,0.00,CLR,,0.00,WeatherDisplay:10.37,2013-02-18 01:06:00,
2013-02-17 19:11:00,52.3,33.2,29.71,SE,140,5.8,5.8,48,0.00,CLR,,0.00,WeatherDisplay:10.37,2013-02-18 01:11:00,
2013-02-17 19:16:00,52.0,32.9,29.71,SSE,161,3.5,3.6,48,0.00,CLR,,0.00,WeatherDisplay:10.37,2013-02-18 01:16:00,
2013-02-17 19:21:00,51.8,32.7,29.71,SE,134,3.5,0.0,48,0.00,CLR,,0.00,WeatherDisplay:10.37,2013-02-18 01:21:00,
2013-02-17 19:26:00,51.6,32.6,29.71,SE,138,3.5,3.5,48,0.00,CLR,,0.00,WeatherDisplay:10.37,2013-02-18 01:26:00,
2013-02-17 19:31:00,51.4,32.4,29.71,South,174,5.8,5.8,48,0.00,CLR,,0.00,WeatherDisplay:10.37,2013-02-18 01:31:00,
2013-02-17 19:36:00,51.3,32.2,29.71,SSE,158,3.5,3.5,48,0.00,CLR,,0.00,WeatherDisplay:10.37,2013-02-18 01:36:00,
2013-02-17 19:41:00,51.1,32.1,29.71,SSE,151,3.5,3.5,48,0.00,CLR,,0.00,WeatherDisplay:10.37,2013-02-18 01:41:00,
2013-02-17 19:46:00,50.9,31.9,29.71,SSE,163,3.5,3.5,48,0.00,CLR,,0.00,WeatherDisplay:10.37,2013-02-18 01:46:00,
2013-02-17 19:51:00,50.7,31.7,29.68,SSE,154,5.4,5.4,48,0.00,CLR,,0.00,WeatherDisplay:10.37,2013-02-18 01:51:00,
2013-02-17 19:56:00,50.7,31.7,29.68,SSE,160,5.8,5.8,48,0.00,CLR,,0.00,WeatherDisplay:10.37,2013-02-18 01:56:00,
2013-02-17 20:01:00,50.7,31.7,29.68,SSE,162,8.1,8.1,48,0.00,CLR,,0.00,WeatherDisplay:10.37,2013-02-18 02:01:00,
2013-02-17 20:06:00,50.9,31.9,29.68,South,184,8.3,8.3,48,0.00,CLR,,0.00,WeatherDisplay:10.37,2013-02-18 02:06:00,
2013-02-17 20:11:00,50.9,31.9,29.68,East,101,4.0,0.0,48,0.00,CLR,,0.00,WeatherDisplay:10.37,2013-02-18 02:11:00,
2013-02-17 20:16:00,50.9,31.9,29.68,SE,143,8.1,8.1,48,0.00,CLR,,0.00,WeatherDisplay:10.37,2013-02-18 02:16:00,
2013-02-17 20:21:00,50.9,31.9,29.68,SE,146,5.8,5.8,48,0.00,CLR,,0.00,WeatherDisplay:10.37,2013-02-18 02:21:00,
2013-02-17 20:26:00,51.1,32.1,29.68,SE,138,5.8,5.8,48,0.00,CLR,,0.00,WeatherDisplay:10.37,2013-02-18 02:26:00,
2013-02-17 20:31:00,51.3,32.2,29.68,SE,128,5.8,5.8,48,0.00,CLR,,0.00,WeatherDisplay:10.37,2013-02-18 02:31:00,
2013-02-17 20:36:00,51.3,32.2,29.68,South,191,5.8,5.8,48,0.00,CLR,,0.00,WeatherDisplay:10.37,2013-02-18 02:36:00,
2013-02-17 20:41:00,51.3,32.2,29.68,SE,128,5.8,5.8,48,0.00,CLR,,0.00,WeatherDisplay:10.37,2013-02-18 02:41:00,
2013-02-17 20:46:00,51.3,32.2,29.68,South,169,5.8,5.8,48,0.00,CLR,,0.00,WeatherDisplay:10.37,2013-02-18 02:46:00,
2013-02-17 20:51:00,51.3,32.2,29.68,South,188,8.1,8.1,48,0.00,CLR,,0.00,WeatherDisplay:10.37,2013-02-18 02:51:00,
2013-02-17 20:56:00,51.4,32.4,29.68,South,187,5.8,5.8,48,0.00,CLR,,0.00,WeatherDisplay:10.37,2013-02-18 02:56:00,
2013-02-17 21:01:00,51.4,30.2,29.68,SSW,200,4.6,4.6,44,0.00,CLR,,0.00,WeatherDisplay:10.37,2013-02-18 03:01:00,
2013-02-17 21:06:00,51.4,30.2,29.65,East,97,5.8,5.8,44,0.00,CLR,,0.00,WeatherDisplay:10.37,2013-02-18 03:06:00,
2013-02-17 21:11:00,51.4,30.2,29.65,South,174,3.5,3.5,44,0.00,CLR,,0.00,WeatherDisplay:10.37,2013-02-18 03:11:00,
2013-02-17 21:16:00,51.4,30.2,29.65,SSW,211,5.8,5.8,44,0.00,CLR,,0.00,WeatherDisplay:10.37,2013-02-18 03:16:00,
2013-02-17 21:21:00,51.6,30.4,29.65,SW,217,8.1,8.1,44,0.00,CLR,,0.00,WeatherDisplay:10.37,2013-02-18 03:21:00,
2013-02-17 21:26:00,51.6,30.4,29.65,South,188,5.8,5.8,44,0.00,CLR,,0.00,WeatherDisplay:10.37,2013-02-18 03:26:00,
2013-02-17 21:31:00,51.6,30.4,29.65,SSW,208,5.8,5.8,44,0.00,CLR,,0.00,WeatherDisplay:10.37,2013-02-18 03:31:00,
2013-02-17 21:36:00,51.6,30.4,29.65,SE,128,3.5,3.5,44,0.00,CLR,,0.00,WeatherDisplay:10.37,2013-02-18 03:36:00,
2013-02-17 21:41:00,51.6,30.4,29.65,South,180,9.2,9.2,44,0.00,CLR,,0.00,WeatherDisplay:10.37,2013-02-18 03:41:00,
2013-02-17 21:46:00,51.6,30.4,29.65,SW,233,8.1,8.1,44,0.00,CLR,,0.00,WeatherDisplay:10.37,2013-02-18 03:46:00,
2013-02-17 21:51:00,51.6,30.4,29.65,South,179,5.8,5.8,44,0.00,CLR,,0.00,WeatherDisplay:10.37,2013-02-18 03:51:00,
2013-02-17 21:56:00,51.6,30.4,29.65,West,260,5.8,5.8,44,0.00,CLR,,0.00,WeatherDisplay:10.37,2013-02-18 03:56:00,
2013-02-17 22:01:00,51.6,28.1,29.65,SSW,205,5.8,5.8,40,0.00,CLR,,0.00,WeatherDisplay:10.37,2013-02-18 04:01:00,
2013-02-17 22:06:00,51.6,28.1,29.65,WSW,243,4.6,4.6,40,0.00,CLR,,0.00,WeatherDisplay:10.37,2013-02-18 04:06:00,
2013-02-17 22:11:00,51.8,28.2,29.65,SW,227,9.2,9.2,40,0.00,CLR,,0.00,WeatherDisplay:10.37,2013-02-18 04:11:00,
2013-02-17 22:16:00,52.0,28.4,29.65,SE,129,9.2,9.2,40,0.00,CLR,,0.00,WeatherDisplay:10.37,2013-02-18 04:16:00,
2013-02-17 22:21:00,52.2,28.5,29.65,West,260,5.8,5.8,40,0.00,CLR,,0.00,WeatherDisplay:10.37,2013-02-18 04:21:00,
2013-02-17 22:26:00,52.2,28.5,29.65,SSW,211,3.5,3.6,40,0.00,CLR,,0.00,WeatherDisplay:10.37,2013-02-18 04:26:00,
2013-02-17 22:31:00,52.3,28.7,29.65,SW,218,5.8,5.8,40,0.00,CLR,,0.00,WeatherDisplay:10.37,2013-02-18 04:31:00,
2013-02-17 22:36:00,52.5,28.9,29.65,SSE,168,8.0,8.0,40,0.00,CLR,,0.00,WeatherDisplay:10.37,2013-02-18 04:36:00,
2013-02-17 22:41:00,52.9,29.2,29.65,SW,214,8.1,8.1,40,0.00,CLR,,0.00,WeatherDisplay:10.37,2013-02-18 04:41:00,
2013-02-17 22:46:00,53.2,29.5,29.65,South,179,5.8,5.8,40,0.00,CLR,,0.00,WeatherDisplay:10.37,2013-02-18 04:46:00,
2013-02-17 22:51:00,53.2,29.5,29.65,SSE,149,6.3,6.3,40,0.00,CLR,,0.00,WeatherDisplay:10.37,2013-02-18 04:51:00,
2013-02-17 22:56:00,53.2,29.5,29.65,SW,220,5.8,5.8,40,0.00,CLR,,0.00,WeatherDisplay:10.37,2013-02-18 04:56:00,
2013-02-17 23:00:00,53.4,29.7,29.65,WSW,252,5.8,5.8,40,0.00,CLR,,0.00,WeatherDisplay:10.37,2013-02-18 05:00:00,
2013-02-17 23:05:00,53.4,29.7,29.65,SW,214,5.8,5.8,40,0.00,CLR,,0.00,WeatherDisplay:10.37,2013-02-18 05:05:00,
2013-02-17 23:10:00,53.6,29.8,29.65,SE,135,6.9,6.9,40,0.00,CLR,,0.00,WeatherDisplay:10.37,2013-02-18 05:10:00,
2013-02-17 23:15:00,53.4,29.7,29.65,WSW,250,8.1,8.1,40,0.00,CLR,,0.00,WeatherDisplay:10.37,2013-02-18 05:15:00,
2013-02-17 23:20:00,53.4,29.7,29.65,SSE,153,4.9,4.9,40,0.00,CLR,,0.00,WeatherDisplay:10.37,2013-02-18 05:20:00,
2013-02-17 23:25:00,53.2,29.5,29.65,SSW,204,5.8,5.8,40,0.00,CLR,,0.00,WeatherDisplay:10.37,2013-02-18 05:25:00,
2013-02-17 23:30:00,53.1,29.4,29.65,SW,225,6.9,6.9,40,0.00,CLR,,0.00,WeatherDisplay:10.37,2013-02-18 05:30:00,
2013-02-17 23:35:00,53.1,29.4,29.65,SSW,197,5.8,5.8,40,0.00,CLR,,0.00,WeatherDisplay:10.37,2013-02-18 05:35:00,
2013-02-17 23:40:00,52.9,29.2,29.65,South,187,8.1,8.1,40,0.00,CLR,,0.00,WeatherDisplay:10.37,2013-02-18 05:40:00,
2013-02-17 23:45:00,52.9,29.2,29.65,South,183,5.8,5.8,40,0.00,CLR,,0.00,WeatherDisplay:10.37,2013-02-18 05:45:00,
2013-02-17 23:50:00,52.7,29.0,29.65,SW,221,5.4,5.4,40,0.00,CLR,,0.00,WeatherDisplay:10.37,2013-02-18 05:50:00,
2013-02-17 23:55:00,52.5,28.9,29.65,South,173,3.5,3.5,40,0.00,CLR,,0.00,WeatherDisplay:10.37,2013-02-18 05:55:00,